Home   Weather   Makati   Past weeks

Flag for Philippines Past Weather in Makati, Philippines — Yesterday and Last 2 Weeks

Now
93 °F

Passing clouds.


Feels Like: 101 °F
Forecast: 80 / 94 °F
Wind: 13 mph from West

Location: National Airport

Current Time: Apr 28, 2017 at 4:50:46 pm

Latest Report: Apr 28, 2017 at 4:00 pm


Visibility: N/A

Pressure: 29.71 "Hg

Humidity: 49%

Dew Point: 72 °F

Location of MakatiLocation

Past Weather in Makati — Graph

°F

Makati Temperature Yesterday

Maximum temperature yesterday: 93 °F (at 2:00 pm)
Minimum temperature yesterday: 82 °F (at 1:00 am)
Average temperature yesterday: 87 °F

High & Low Weather Summary for the Past Weeks

 TemperatureHumidityPressure
High97 °F (Apr 20, 1:00 pm)100% (Apr 16, 7:00 am)29.95 "Hg (Apr 16, 7:00 am)
Low73 °F (Apr 22, 9:00 pm)39% (Apr 26, 4:00 pm)29.71 "Hg (Apr 27, 3:00 pm)
Average86 °F74%29.84 "Hg
* Reported Apr 13 3:00 pm — Apr 28 3:00 pm, Makati, Weather by CustomWeather, © 2017

Note: Actual official high and low records may vary slightly from our data, if they occured in-between our weather recording intervals... More about our weather records

Advertising

Makati Weather History for the Previous 24 Hours

Scroll right to see more
 ConditionsComfort  
Time TempWeatherWind HumidityBarometerVisibility
3:00 pm
Fri, Apr 28
93 °FPassing clouds.13 mph53%29.74 "HgN/A
2:00 pm93 °FPassing clouds.10 mph49%29.74 "HgN/A
1:00 pm91 °FPassing clouds.13 mph56%29.80 "HgN/A
12:00 pm90 °FPassing clouds.12 mph63%29.83 "Hg6 mi
11:00 am90 °FScattered clouds.12 mph67%29.83 "Hg6 mi
10:00 am90 °FPassing clouds.10 mph67%29.86 "HgN/A
9:00 am88 °FScattered clouds.7 mph66%29.86 "HgN/A
8:00 am86 °FScattered clouds.8 mph70%29.86 "HgN/A
7:00 am82 °FScattered clouds.9 mph84%29.83 "HgN/A
6:00 am82 °FBroken clouds.6 mph84%29.83 "HgN/A
5:00 am82 °FPassing clouds.5 mph79%29.80 "HgN/A
4:00 am82 °FMostly cloudy.1 mph84%29.80 "HgN/A
3:00 am82 °FMostly cloudy.8 mph79%29.83 "HgN/A
2:00 am82 °FMostly cloudy.3 mph79%29.83 "HgN/A
1:00 am82 °FMostly cloudy.5 mph79%29.83 "HgN/A
12:00 am82 °FMostly cloudy.9 mph84%29.86 "HgN/A
11:00 pm
Thu, Apr 27
84 °FMostly cloudy.No wind79%29.86 "HgN/A
10:00 pm82 °FPartly cloudy.2 mph89%29.83 "Hg6 mi
9:10 pm84 °FSprinkles. Mostly cloudy.5 mph84%29.83 "Hg5 mi
9:00 pm84 °FMostly cloudy.13 mph79%29.83 "Hg6 mi
8:00 pm86 °FMostly cloudy.6 mph79%29.80 "Hg6 mi
7:00 pm86 °FPartly cloudy.9 mph75%29.77 "Hg6 mi
6:00 pm88 °FPartly sunny.13 mph66%29.74 "Hg6 mi
5:00 pm90 °FPartly sunny.14 mph63%29.74 "Hg6 mi
4:00 pm91 °FPartly sunny.14 mph59%29.71 "Hg6 mi
Weather by CustomWeather, © 2017

See weather overviewHow to use our weather pages